Starlink 3386

operational
NORAD ID: 51126 Int'l Des: 2022-005 Owner: SPXS Country: US Constellation: starlink
LEOCIRCULAR

Starlink 3386について

説明を読み込み中...

リアルタイム位置

3D地球を読み込み中...

次回通過

高度履歴

Altitude vs Time

uPlot chart will show altitude changes over time

軌道要素

1 51126U 22005Y 25350.22923503 .00000246 00000-0 33524-4 0 9998
2 51126 53.2189 313.8001 0001574 96.6200 263.4972 15.08846315216149
Epoch: Dec 16, 2025 • Age: 25 hours

現在のステータス

高度 557.5 km
速度 7.58 km/s
衛星直下点 -48.60°S, 65.99°E
打ち上げ日 Jan 19, 2022
運用期間 3.9 years
タイプ internet

技術仕様

分類 Payload
質量 297.00 kg
乾燥質量 275.00 kg
総質量 297.00 kg
長さ 0.20 m
直径 2.80 m
スパン 9.00 m
形状 Box + pan
製造者 SPXS
バスタイプ Starlink
フェーズステータス In Orbit
所有者/国 SPXS/US

大規模コンステレーション

Loading constellations...